Regional Weather Roundup
Issued by NWS

Home | Current Version | Previous Version | Graphics & Text | Print | Product List | Glossary On
Versions: 1 2 3 4 5 6 7 8 9 10 11 12 13 14 15 16 17 18 19 20 21 22 23 24 25 26 27 28 29 30 31 32 33 34 35 36 37 38 39 40 41 42 43 44 45 46 47 48 49 50
000
ASUS44 KMEG 280610
RWRTN
TENNESSEE HOURLY STATE WEATHER ROUNDUP
NATIONAL WEATHER SERVICE MEMPHIS TN
100 AM CDT TUE JUL 28 2015

TNZ002-004-019-021-049-052-054-088>092-280700-
WEST TENNESSEE

CITY           SKY/WX    TMP DP  RH WIND       PRES   REMARKS
MEMPHIS INTL   PTCLDY    84  75  74 SW3       29.95F HX  92
NWS MEMPHIS      N/A     80 N/A N/A MISG        N/A
JACKSON        CLEAR     78  76  93 SW3       29.96F FOG
DYERSBURG        N/A    N/A N/A N/A MISG        N/A
PARIS          CLEAR     73  72  94 CALM      29.97F
LEXINGTON      CLEAR     77  75  94 CALM      29.96F
$$

TNZ008-025-027-028-033-062-065-066-280700-
NORTH MIDDLE TENNESSEE

CITY           SKY/WX    TMP DP  RH WIND       PRES   REMARKS
NASHVILLE      MOCLDY    81  76  84 CALM      29.98S
CLARKSVILLE    CLOUDY    77  73  87 CALM      29.96F
SMYRNA         PTCLDY    79  77  94 CALM      29.99S
COOKEVILLE     PTCLDY    75  73  94 CALM      30.00F
CROSSVILLE     PTCLDY    73  71  93 CALM      30.06F FOG
$$

TNZ061-075-076-078-094-096-097-280700-
SOUTH MIDDLE TENNESSEE

CITY           SKY/WX    TMP DP  RH WIND       PRES   REMARKS
FAYETTEVILLE   CLEAR     75  72  88 CALM      30.00F
TULLAHOMA      CLEAR     75  72  88 CALM      30.02F
WINCHESTER     CLEAR     75  72  88 CALM      30.01F
MCMINNVILLE    CLEAR     75  75 100 CALM      30.01S
COLUMBIA       CLEAR     77  77 100 CALM      29.97F
SHELBYVILLE    CLEAR     77  75  94 CALM      30.00F
$$

TNZ017-018-042-046-047-280700-
NORTHEAST TENNESSEE

CITY           SKY/WX    TMP DP  RH WIND       PRES   REMARKS
TRI CITIES     CLOUDY    72  70  93 CALM      30.05F FOG
ELIZABETHTON   PTCLDY    70  68  94 E3        30.07S
$$

TNZ012-013-036-069-073-074-280700-
CENTRAL EAST TENNESSEE

CITY           SKY/WX    TMP DP  RH WIND       PRES   REMARKS
KNOXVILLE      MOCLDY    79  71  76 CALM      30.00F
OAK RIDGE      MOCLDY    76  71  85 CALM      30.02F
GATLINBURG     CLEAR     75  73  94 E5        30.01F
MORRISTOWN       N/A     73  72  94 VRB3      30.04F
$$

TNZ083-085-099-280700-
SOUTHEAST TENNESSEE

CITY           SKY/WX    TMP DP  RH WIND       PRES   REMARKS
CHATTANOOGA    PTCLDY    79  75  87 CALM      29.99F
$$

SKY/WX REPORTED AS FAIR MEANS FEW OR NO CLOUDS BELOW
12 THOUSAND FEET.




USA.gov is the U.S. government's official web portal to all federal, state and local government web resources and services.